owner,sensor,date,latitude,longitude,air_temperature,qcFlag 
DISL,ioos:station:DISL:BSCA:1,2011-11-01T00:00:00Z,30.3288,-87.8293,18.24,1111122 
DISL,ioos:station:DISL:BSCA:1,2011-11-01T00:30:00Z,30.3288,-87.8293,17.8,1111122 
DISL,ioos:station:DISL:BSCA:1,2011-11-01T01:00:00Z,30.3288,-87.8293,17.56,1111122 
DISL,ioos:station:DISL:BSCA:1,2011-11-01T01:30:00Z,30.3288,-87.8293,17.29,1111122 
DISL,ioos:station:DISL:BSCA:1,2011-11-01T02:00:00Z,30.3288,-87.8293,16.66,1111122 
DISL,ioos:station:DISL:BSCA:1,2011-11-01T02:30:00Z,30.3288,-87.8293,16.32,1111122 
DISL,ioos:station:DISL:BSCA:1,2011-11-01T03:00:00Z,30.3288,-87.8293,15.92,1111122 
DISL,ioos:station:DISL:BSCA:1,2011-11-01T03:30:00Z,30.3288,-87.8293,15.54,1111122 
DISL,ioos:station:DISL:BSCA:1,2011-11-01T04:00:00Z,30.3288,-87.8293,14.9,1111122 
DISL,ioos:station:DISL:BSCA:1,2011-11-01T04:30:00Z,30.3288,-87.8293,14.56,1111122 
DISL,ioos:station:DISL:BSCA:1,2011-11-01T05:00:00Z,30.3288,-87.8293,14.93,1111122 
DISL,ioos:station:DISL:BSCA:1,2011-11-01T05:30:00Z,30.3288,-87.8293,14.43,1111122 
DISL,ioos:station:DISL:BSCA:1,2011-11-01T06:00:00Z,30.3288,-87.8293,13.85,1111122 
DISL,ioos:station:DISL:BSCA:1,2011-11-01T06:30:00Z,30.3288,-87.8293,13.62,1111122 
DISL,ioos:station:DISL:BSCA:1,2011-11-01T07:00:00Z,30.3288,-87.8293,13.45,1111122 
DISL,ioos:station:DISL:BSCA:1,2011-11-01T07:30:00Z,30.3288,-87.8293,13.15,1111122 
DISL,ioos:station:DISL:BSCA:1,2011-11-01T08:00:00Z,30.3288,-87.8293,13.09,1111122 
DISL,ioos:station:DISL:BSCA:1,2011-11-01T08:30:00Z,30.3288,-87.8293,12.68,1111122 
DISL,ioos:station:DISL:BSCA:1,2011-11-01T09:00:00Z,30.3288,-87.8293,12.04,1111122 
DISL,ioos:station:DISL:BSCA:1,2011-11-01T09:30:00Z,30.3288,-87.8293,12.14,1111122 
DISL,ioos:station:DISL:BSCA:1,2011-11-01T10:00:00Z,30.3288,-87.8293,12.07,1111122 
DISL,ioos:station:DISL:BSCA:1,2011-11-01T10:30:00Z,30.3288,-87.8293,11.53,1111122 
DISL,ioos:station:DISL:BSCA:1,2011-11-01T11:00:00Z,30.3288,-87.8293,11.12,1111122 
DISL,ioos:station:DISL:BSCA:1,2011-11-01T11:30:00Z,30.3288,-87.8293,10.68,1111122 
DISL,ioos:station:DISL:BSCA:1,2011-11-01T12:00:00Z,30.3288,-87.8293,10.68,1111122 
DISL,ioos:station:DISL:BSCA:1,2011-11-01T12:30:00Z,30.3288,-87.8293,10.58,1111122 
DISL,ioos:station:DISL:BSCA:1,2011-11-01T13:00:00Z,30.3288,-87.8293,11.02,1111122 
DISL,ioos:station:DISL:BSCA:1,2011-11-01T13:30:00Z,30.3288,-87.8293,12.04,1111122 
DISL,ioos:station:DISL:BSCA:1,2011-11-01T14:00:00Z,30.3288,-87.8293,13.8,1111122 
DISL,ioos:station:DISL:BSCA:1,2011-11-01T14:30:00Z,30.3288,-87.8293,15.25,1111122 
DISL,ioos:station:DISL:BSCA:1,2011-11-01T15:00:00Z,30.3288,-87.8293,16.56,1111122 
DISL,ioos:station:DISL:BSCA:1,2011-11-01T15:30:00Z,30.3288,-87.8293,17.64,1111122 
DISL,ioos:station:DISL:BSCA:1,2011-11-01T16:00:00Z,30.3288,-87.8293,18.17,1111122 
DISL,ioos:station:DISL:BSCA:1,2011-11-01T16:30:00Z,30.3288,-87.8293,18.37,1111122 
DISL,ioos:station:DISL:BSCA:1,2011-11-01T17:00:00Z,30.3288,-87.8293,18.54,1111122 
DISL,ioos:station:DISL:BSCA:1,2011-11-01T17:30:00Z,30.3288,-87.8293,18.64,1111122 
DISL,ioos:station:DISL:BSCA:1,2011-11-01T18:00:00Z,30.3288,-87.8293,18.5,1111122 
DISL,ioos:station:DISL:BSCA:1,2011-11-01T18:30:00Z,30.3288,-87.8293,18.76,1111122 
DISL,ioos:station:DISL:BSCA:1,2011-11-01T19:00:00Z,30.3288,-87.8293,18.76,1111122 
DISL,ioos:station:DISL:BSCA:1,2011-11-01T19:30:00Z,30.3288,-87.8293,18.62,1111122 
DISL,ioos:station:DISL:BSCA:1,2011-11-01T20:00:00Z,30.3288,-87.8293,18.69,1111122 
DISL,ioos:station:DISL:BSCA:1,2011-11-01T20:30:00Z,30.3288,-87.8293,18.59,1111122 
DISL,ioos:station:DISL:BSCA:1,2011-11-01T21:00:00Z,30.3288,-87.8293,18.83,1111122 
DISL,ioos:station:DISL:BSCA:1,2011-11-01T21:30:00Z,30.3288,-87.8293,18.83,1111122 
DISL,ioos:station:DISL:BSCA:1,2011-11-01T22:00:00Z,30.3288,-87.8293,18.9,1111122 
DISL,ioos:station:DISL:BSCA:1,2011-11-01T22:30:00Z,30.3288,-87.8293,18.93,1111122 
DISL,ioos:station:DISL:BSCA:1,2011-11-01T23:00:00Z,30.3288,-87.8293,18.39,1111122 
DISL,ioos:station:DISL:BSCA:1,2011-11-01T23:30:00Z,30.3288,-87.8293,18.0,1111122 
DISL,ioos:station:DISL:BSCA:1,2011-11-02T00:00:00Z,30.3288,-87.8293,16.95,1111122 
DISL,ioos:station:DISL:BSCA:1,2011-11-02T00:30:00Z,30.3288,-87.8293,16.38,1111122 
DISL,ioos:station:DISL:BSCA:1,2011-11-02T01:00:00Z,30.3288,-87.8293,16.05,1111122 
DISL,ioos:station:DISL:BSCA:1,2011-11-02T01:30:00Z,30.3288,-87.8293,15.37,1111122 
DISL,ioos:station:DISL:BSCA:1,2011-11-02T02:00:00Z,30.3288,-87.8293,15.1,1111122 
DISL,ioos:station:DISL:BSCA:1,2011-11-02T02:30:00Z,30.3288,-87.8293,15.0,1111122 
DISL,ioos:station:DISL:BSCA:1,2011-11-02T03:00:00Z,30.3288,-87.8293,14.76,1111122 
DISL,ioos:station:DISL:BSCA:1,2011-11-02T03:30:00Z,30.3288,-87.8293,14.09,1111122 
DISL,ioos:station:DISL:BSCA:1,2011-11-02T04:00:00Z,30.3288,-87.8293,14.05,1111122 
DISL,ioos:station:DISL:BSCA:1,2011-11-02T04:30:00Z,30.3288,-87.8293,13.69,1111122 
DISL,ioos:station:DISL:BSCA:1,2011-11-02T05:00:00Z,30.3288,-87.8293,13.69,1111122 
DISL,ioos:station:DISL:BSCA:1,2011-11-02T05:30:00Z,30.3288,-87.8293,14.14,1111122 
DISL,ioos:station:DISL:BSCA:1,2011-11-02T06:00:00Z,30.3288,-87.8293,14.58,1111122 
DISL,ioos:station:DISL:BSCA:1,2011-11-02T06:30:00Z,30.3288,-87.8293,13.86,1111122 
DISL,ioos:station:DISL:BSCA:1,2011-11-02T07:00:00Z,30.3288,-87.8293,13.76,1111122 
DISL,ioos:station:DISL:BSCA:1,2011-11-02T07:30:00Z,30.3288,-87.8293,13.73,1111122 
DISL,ioos:station:DISL:BSCA:1,2011-11-02T08:00:00Z,30.3288,-87.8293,13.59,1111122 
DISL,ioos:station:DISL:BSCA:1,2011-11-02T08:30:00Z,30.3288,-87.8293,13.36,1111122 
DISL,ioos:station:DISL:BSCA:1,2011-11-02T09:00:00Z,30.3288,-87.8293,13.22,1111122 
DISL,ioos:station:DISL:BSCA:1,2011-11-02T09:30:00Z,30.3288,-87.8293,12.99,1111122 
DISL,ioos:station:DISL:BSCA:1,2011-11-02T10:00:00Z,30.3288,-87.8293,12.44,1111122 
DISL,ioos:station:DISL:BSCA:1,2011-11-02T10:30:00Z,30.3288,-87.8293,12.17,1111122 
DISL,ioos:station:DISL:BSCA:1,2011-11-02T11:00:00Z,30.3288,-87.8293,12.04,1111122 
DISL,ioos:station:DISL:BSCA:1,2011-11-02T11:30:00Z,30.3288,-87.8293,12.82,1111122 
DISL,ioos:station:DISL:BSCA:1,2011-11-02T12:00:00Z,30.3288,-87.8293,12.85,1111122 
DISL,ioos:station:DISL:BSCA:1,2011-11-02T12:30:00Z,30.3288,-87.8293,12.92,1111122 
DISL,ioos:station:DISL:BSCA:1,2011-11-02T13:00:00Z,30.3288,-87.8293,13.32,1111122 
DISL,ioos:station:DISL:BSCA:1,2011-11-02T13:30:00Z,30.3288,-87.8293,14.27,1111122 
DISL,ioos:station:DISL:BSCA:1,2011-11-02T14:00:00Z,30.3288,-87.8293,15.31,1111122 
DISL,ioos:station:DISL:BSCA:1,2011-11-02T14:30:00Z,30.3288,-87.8293,16.66,1111122 
DISL,ioos:station:DISL:BSCA:1,2011-11-02T15:00:00Z,30.3288,-87.8293,17.64,1111122 
DISL,ioos:station:DISL:BSCA:1,2011-11-02T15:30:00Z,30.3288,-87.8293,18.31,1111122 
DISL,ioos:station:DISL:BSCA:1,2011-11-02T16:00:00Z,30.3288,-87.8293,18.27,1111122 
DISL,ioos:station:DISL:BSCA:1,2011-11-02T16:30:00Z,30.3288,-87.8293,18.58,1111122 
DISL,ioos:station:DISL:BSCA:1,2011-11-02T17:00:00Z,30.3288,-87.8293,18.71,1111122 
DISL,ioos:station:DISL:BSCA:1,2011-11-02T17:30:00Z,30.3288,-87.8293,18.9,1111122 
DISL,ioos:station:DISL:BSCA:1,2011-11-02T18:00:00Z,30.3288,-87.8293,18.96,1111122 
DISL,ioos:station:DISL:BSCA:1,2011-11-02T18:30:00Z,30.3288,-87.8293,19.34,1111122 
DISL,ioos:station:DISL:BSCA:1,2011-11-02T19:00:00Z,30.3288,-87.8293,19.64,1111122 
DISL,ioos:station:DISL:BSCA:1,2011-11-02T19:30:00Z,30.3288,-87.8293,19.61,1111122 
DISL,ioos:station:DISL:BSCA:1,2011-11-02T20:00:00Z,30.3288,-87.8293,19.74,1111122 
DISL,ioos:station:DISL:BSCA:1,2011-11-02T20:30:00Z,30.3288,-87.8293,19.78,1111122 
DISL,ioos:station:DISL:BSCA:1,2011-11-02T21:00:00Z,30.3288,-87.8293,19.44,1111122 
DISL,ioos:station:DISL:BSCA:1,2011-11-02T21:30:00Z,30.3288,-87.8293,19.88,1111122 
DISL,ioos:station:DISL:BSCA:1,2011-11-02T22:00:00Z,30.3288,-87.8293,19.98,1111122 
DISL,ioos:station:DISL:BSCA:1,2011-11-02T22:30:00Z,30.3288,-87.8293,19.78,1111122 
DISL,ioos:station:DISL:BSCA:1,2011-11-02T23:00:00Z,30.3288,-87.8293,19.37,1111122 
DISL,ioos:station:DISL:BSCA:1,2011-11-02T23:30:00Z,30.3288,-87.8293,18.87,1111122 
DISL,ioos:station:DISL:BSCA:1,2011-11-03T00:00:00Z,30.3288,-87.8293,18.58,1111122 
DISL,ioos:station:DISL:BSCA:1,2011-11-03T00:30:00Z,30.3288,-87.8293,18.0,1111122 
DISL,ioos:station:DISL:BSCA:1,2011-11-03T01:00:00Z,30.3288,-87.8293,17.49,1111122 
DISL,ioos:station:DISL:BSCA:1,2011-11-03T01:30:00Z,30.3288,-87.8293,17.53,1111122 
DISL,ioos:station:DISL:BSCA:1,2011-11-03T02:00:00Z,30.3288,-87.8293,17.36,1111122 
DISL,ioos:station:DISL:BSCA:1,2011-11-03T02:30:00Z,30.3288,-87.8293,17.56,1111122 
DISL,ioos:station:DISL:BSCA:1,2011-11-03T03:00:00Z,30.3288,-87.8293,17.22,1111122 
DISL,ioos:station:DISL:BSCA:1,2011-11-03T03:30:00Z,30.3288,-87.8293,17.16,1111122 
DISL,ioos:station:DISL:BSCA:1,2011-11-03T04:00:00Z,30.3288,-87.8293,17.12,1111122 
DISL,ioos:station:DISL:BSCA:1,2011-11-03T04:30:00Z,30.3288,-87.8293,17.16,1111122 
DISL,ioos:station:DISL:BSCA:1,2011-11-03T05:00:00Z,30.3288,-87.8293,17.41,1111122 
DISL,ioos:station:DISL:BSCA:1,2011-11-03T05:30:00Z,30.3288,-87.8293,18.59,1111122 
DISL,ioos:station:DISL:BSCA:1,2011-11-03T06:00:00Z,30.3288,-87.8293,18.75,1111122 
DISL,ioos:station:DISL:BSCA:1,2011-11-03T06:30:00Z,30.3288,-87.8293,18.88,1111122 
DISL,ioos:station:DISL:BSCA:1,2011-11-03T07:00:00Z,30.3288,-87.8293,18.64,1111122 
DISL,ioos:station:DISL:BSCA:1,2011-11-03T07:30:00Z,30.3288,-87.8293,18.64,1111122 
DISL,ioos:station:DISL:BSCA:1,2011-11-03T08:00:00Z,30.3288,-87.8293,19.25,1111122 
DISL,ioos:station:DISL:BSCA:1,2011-11-03T08:30:00Z,30.3288,-87.8293,19.69,1111122 
DISL,ioos:station:DISL:BSCA:1,2011-11-03T09:00:00Z,30.3288,-87.8293,19.36,1111122 
DISL,ioos:station:DISL:BSCA:1,2011-11-03T09:30:00Z,30.3288,-87.8293,18.85,1111122 
DISL,ioos:station:DISL:BSCA:1,2011-11-03T10:00:00Z,30.3288,-87.8293,19.12,1111122 
DISL,ioos:station:DISL:BSCA:1,2011-11-03T10:30:00Z,30.3288,-87.8293,19.93,1111122 
DISL,ioos:station:DISL:BSCA:1,2011-11-03T11:00:00Z,30.3288,-87.8293,20.27,1111122 
DISL,ioos:station:DISL:BSCA:1,2011-11-03T11:30:00Z,30.3288,-87.8293,20.03,1111122 
DISL,ioos:station:DISL:BSCA:1,2011-11-03T12:00:00Z,30.3288,-87.8293,18.81,1111122 
DISL,ioos:station:DISL:BSCA:1,2011-11-03T12:30:00Z,30.3288,-87.8293,18.44,1111122 
DISL,ioos:station:DISL:BSCA:1,2011-11-03T13:00:00Z,30.3288,-87.8293,19.83,1111122 
DISL,ioos:station:DISL:BSCA:1,2011-11-03T13:30:00Z,30.3288,-87.8293,20.44,1111122 
DISL,ioos:station:DISL:BSCA:1,2011-11-03T14:00:00Z,30.3288,-87.8293,20.6,1111122 
DISL,ioos:station:DISL:BSCA:1,2011-11-03T14:30:00Z,30.3288,-87.8293,21.13,1111122 
DISL,ioos:station:DISL:BSCA:1,2011-11-03T15:00:00Z,30.3288,-87.8293,21.47,1111122 
DISL,ioos:station:DISL:BSCA:1,2011-11-03T15:30:00Z,30.3288,-87.8293,21.64,1111122 
DISL,ioos:station:DISL:BSCA:1,2011-11-03T16:00:00Z,30.3288,-87.8293,21.74,1111122 
DISL,ioos:station:DISL:BSCA:1,2011-11-03T16:30:00Z,30.3288,-87.8293,22.18,1111122 
DISL,ioos:station:DISL:BSCA:1,2011-11-03T17:00:00Z,30.3288,-87.8293,21.84,1111122 
DISL,ioos:station:DISL:BSCA:1,2011-11-03T17:30:00Z,30.3288,-87.8293,21.47,1111122 
DISL,ioos:station:DISL:BSCA:1,2011-11-03T18:00:00Z,30.3288,-87.8293,21.74,1111122 
DISL,ioos:station:DISL:BSCA:1,2011-11-03T18:30:00Z,30.3288,-87.8293,21.13,1111122 
DISL,ioos:station:DISL:BSCA:1,2011-11-03T19:00:00Z,30.3288,-87.8293,21.03,1111122 
DISL,ioos:station:DISL:BSCA:1,2011-11-03T19:30:00Z,30.3288,-87.8293,21.13,1111122 
DISL,ioos:station:DISL:BSCA:1,2011-11-03T20:00:00Z,30.3288,-87.8293,20.45,1111122 
DISL,ioos:station:DISL:BSCA:1,2011-11-03T20:30:00Z,30.3288,-87.8293,20.49,1111122 
DISL,ioos:station:DISL:BSCA:1,2011-11-03T21:00:00Z,30.3288,-87.8293,19.98,1111122 
DISL,ioos:station:DISL:BSCA:1,2011-11-03T21:30:00Z,30.3288,-87.8293,16.49,1111122 
DISL,ioos:station:DISL:BSCA:1,2011-11-03T22:00:00Z,30.3288,-87.8293,15.9,1111122 
DISL,ioos:station:DISL:BSCA:1,2011-11-03T22:30:00Z,30.3288,-87.8293,15.63,1111122 
DISL,ioos:station:DISL:BSCA:1,2011-11-03T23:00:00Z,30.3288,-87.8293,15.42,1111122 
DISL,ioos:station:DISL:BSCA:1,2011-11-03T23:30:00Z,30.3288,-87.8293,14.79,1111122 
DISL,ioos:station:DISL:BSCA:1,2011-11-04T00:00:00Z,30.3288,-87.8293,14.19,1111122 
DISL,ioos:station:DISL:BSCA:1,2011-11-04T00:30:00Z,30.3288,-87.8293,14.26,1111122 
DISL,ioos:station:DISL:BSCA:1,2011-11-04T01:00:00Z,30.3288,-87.8293,14.05,1111122 
DISL,ioos:station:DISL:BSCA:1,2011-11-04T01:30:00Z,30.3288,-87.8293,12.83,1111122 
DISL,ioos:station:DISL:BSCA:1,2011-11-04T02:00:00Z,30.3288,-87.8293,12.09,1111122 
DISL,ioos:station:DISL:BSCA:1,2011-11-04T02:30:00Z,30.3288,-87.8293,11.59,1111122 
DISL,ioos:station:DISL:BSCA:1,2011-11-04T03:00:00Z,30.3288,-87.8293,11.56,1111122 
DISL,ioos:station:DISL:BSCA:1,2011-11-04T03:30:00Z,30.3288,-87.8293,11.42,1111122 
DISL,ioos:station:DISL:BSCA:1,2011-11-04T04:00:00Z,30.3288,-87.8293,11.19,1111122 
DISL,ioos:station:DISL:BSCA:1,2011-11-04T04:30:00Z,30.3288,-87.8293,11.87,1111122 
DISL,ioos:station:DISL:BSCA:1,2011-11-04T05:00:00Z,30.3288,-87.8293,11.56,1111122 
DISL,ioos:station:DISL:BSCA:1,2011-11-04T05:30:00Z,30.3288,-87.8293,11.32,1111122 
DISL,ioos:station:DISL:BSCA:1,2011-11-04T06:00:00Z,30.3288,-87.8293,11.09,1111122 
DISL,ioos:station:DISL:BSCA:1,2011-11-04T06:30:00Z,30.3288,-87.8293,10.78,1111122 
DISL,ioos:station:DISL:BSCA:1,2011-11-04T07:00:00Z,30.3288,-87.8293,11.02,1111122 
DISL,ioos:station:DISL:BSCA:1,2011-11-04T07:30:00Z,30.3288,-87.8293,10.75,1111122 
DISL,ioos:station:DISL:BSCA:1,2011-11-04T08:00:00Z,30.3288,-87.8293,10.85,1111122 
DISL,ioos:station:DISL:BSCA:1,2011-11-04T08:30:00Z,30.3288,-87.8293,10.99,1111122 
DISL,ioos:station:DISL:BSCA:1,2011-11-04T09:00:00Z,30.3288,-87.8293,10.51,1111122 
DISL,ioos:station:DISL:BSCA:1,2011-11-04T09:30:00Z,30.3288,-87.8293,10.17,1111122 
DISL,ioos:station:DISL:BSCA:1,2011-11-04T10:00:00Z,30.3288,-87.8293,10.31,1111122 
DISL,ioos:station:DISL:BSCA:1,2011-11-04T10:30:00Z,30.3288,-87.8293,9.87,1111122 
DISL,ioos:station:DISL:BSCA:1,2011-11-04T11:00:00Z,30.3288,-87.8293,9.67,1111122 
DISL,ioos:station:DISL:BSCA:1,2011-11-04T11:30:00Z,30.3288,-87.8293,9.57,1111122 
DISL,ioos:station:DISL:BSCA:1,2011-11-04T12:00:00Z,30.3288,-87.8293,9.13,1111122 
DISL,ioos:station:DISL:BSCA:1,2011-11-04T12:30:00Z,30.3288,-87.8293,9.0,1111122 
DISL,ioos:station:DISL:BSCA:1,2011-11-04T13:00:00Z,30.3288,-87.8293,9.2,1111122 
DISL,ioos:station:DISL:BSCA:1,2011-11-04T13:30:00Z,30.3288,-87.8293,9.47,1111122 
DISL,ioos:station:DISL:BSCA:1,2011-11-04T14:00:00Z,30.3288,-87.8293,9.87,1111122 
DISL,ioos:station:DISL:BSCA:1,2011-11-04T14:30:00Z,30.3288,-87.8293,10.34,1111122 
DISL,ioos:station:DISL:BSCA:1,2011-11-04T15:00:00Z,30.3288,-87.8293,10.95,1111122 
DISL,ioos:station:DISL:BSCA:1,2011-11-04T15:30:00Z,30.3288,-87.8293,11.46,1111122 
DISL,ioos:station:DISL:BSCA:1,2011-11-04T16:00:00Z,30.3288,-87.8293,12.0,1111122 
DISL,ioos:station:DISL:BSCA:1,2011-11-04T16:30:00Z,30.3288,-87.8293,12.37,1111122 
DISL,ioos:station:DISL:BSCA:1,2011-11-04T17:00:00Z,30.3288,-87.8293,11.55,1111122 
DISL,ioos:station:DISL:BSCA:1,2011-11-04T17:30:00Z,30.3288,-87.8293,11.69,1111122 
DISL,ioos:station:DISL:BSCA:1,2011-11-04T18:00:00Z,30.3288,-87.8293,12.29,1111122 
DISL,ioos:station:DISL:BSCA:1,2011-11-04T18:30:00Z,30.3288,-87.8293,13.17,1111122 
DISL,ioos:station:DISL:BSCA:1,2011-11-04T19:00:00Z,30.3288,-87.8293,13.85,1111122 
DISL,ioos:station:DISL:BSCA:1,2011-11-04T19:30:00Z,30.3288,-87.8293,14.32,1111122 
DISL,ioos:station:DISL:BSCA:1,2011-11-04T20:00:00Z,30.3288,-87.8293,14.52,1111122 
DISL,ioos:station:DISL:BSCA:1,2011-11-04T20:30:00Z,30.3288,-87.8293,14.99,1111122 
DISL,ioos:station:DISL:BSCA:1,2011-11-04T21:00:00Z,30.3288,-87.8293,15.63,1111122 
DISL,ioos:station:DISL:BSCA:1,2011-11-04T21:30:00Z,30.3288,-87.8293,15.97,1111122 
DISL,ioos:station:DISL:BSCA:1,2011-11-04T22:00:00Z,30.3288,-87.8293,16.03,1111122 
DISL,ioos:station:DISL:BSCA:1,2011-11-04T22:30:00Z,30.3288,-87.8293,15.83,1111122 
DISL,ioos:station:DISL:BSCA:1,2011-11-04T23:00:00Z,30.3288,-87.8293,15.42,1111122 
DISL,ioos:station:DISL:BSCA:1,2011-11-04T23:30:00Z,30.3288,-87.8293,15.31,1111122 
DISL,ioos:station:DISL:BSCA:1,2011-11-05T00:00:00Z,30.3288,-87.8293,14.93,1111122 
DISL,ioos:station:DISL:BSCA:1,2011-11-05T00:30:00Z,30.3288,-87.8293,14.66,1111122 
DISL,ioos:station:DISL:BSCA:1,2011-11-05T01:00:00Z,30.3288,-87.8293,14.32,1111122 
DISL,ioos:station:DISL:BSCA:1,2011-11-05T01:30:00Z,30.3288,-87.8293,14.49,1111122 
DISL,ioos:station:DISL:BSCA:1,2011-11-05T02:00:00Z,30.3288,-87.8293,14.59,1111122 
DISL,ioos:station:DISL:BSCA:1,2011-11-05T02:30:00Z,30.3288,-87.8293,14.22,1111122 
DISL,ioos:station:DISL:BSCA:1,2011-11-05T03:00:00Z,30.3288,-87.8293,13.78,1111122 
DISL,ioos:station:DISL:BSCA:1,2011-11-05T03:30:00Z,30.3288,-87.8293,13.45,1111122 
DISL,ioos:station:DISL:BSCA:1,2011-11-05T04:00:00Z,30.3288,-87.8293,12.98,1111122 
DISL,ioos:station:DISL:BSCA:1,2011-11-05T04:30:00Z,30.3288,-87.8293,12.71,1111122 
DISL,ioos:station:DISL:BSCA:1,2011-11-05T05:00:00Z,30.3288,-87.8293,12.58,1111122 
DISL,ioos:station:DISL:BSCA:1,2011-11-05T05:30:00Z,30.3288,-87.8293,12.48,1111122 
DISL,ioos:station:DISL:BSCA:1,2011-11-05T06:00:00Z,30.3288,-87.8293,12.17,1111122 
DISL,ioos:station:DISL:BSCA:1,2011-11-05T06:30:00Z,30.3288,-87.8293,11.8,1111122 
DISL,ioos:station:DISL:BSCA:1,2011-11-05T07:00:00Z,30.3288,-87.8293,11.46,1111122 
DISL,ioos:station:DISL:BSCA:1,2011-11-05T07:30:00Z,30.3288,-87.8293,11.09,1111122 
DISL,ioos:station:DISL:BSCA:1,2011-11-05T08:00:00Z,30.3288,-87.8293,10.54,1111122 
DISL,ioos:station:DISL:BSCA:1,2011-11-05T08:30:00Z,30.3288,-87.8293,10.2,1111122 
DISL,ioos:station:DISL:BSCA:1,2011-11-05T09:00:00Z,30.3288,-87.8293,9.9,1111122 
DISL,ioos:station:DISL:BSCA:1,2011-11-05T09:30:00Z,30.3288,-87.8293,9.91,1111122 
DISL,ioos:station:DISL:BSCA:1,2011-11-05T10:00:00Z,30.3288,-87.8293,9.94,1111122 
DISL,ioos:station:DISL:BSCA:1,2011-11-05T10:30:00Z,30.3288,-87.8293,9.84,1111122 
DISL,ioos:station:DISL:BSCA:1,2011-11-05T11:00:00Z,30.3288,-87.8293,10.12,1111122 
DISL,ioos:station:DISL:BSCA:1,2011-11-05T11:30:00Z,30.3288,-87.8293,9.98,1111122 
DISL,ioos:station:DISL:BSCA:1,2011-11-05T12:00:00Z,30.3288,-87.8293,9.85,1111122 
DISL,ioos:station:DISL:BSCA:1,2011-11-05T12:30:00Z,30.3288,-87.8293,9.98,1111122 
DISL,ioos:station:DISL:BSCA:1,2011-11-05T13:00:00Z,30.3288,-87.8293,10.59,1111122 
DISL,ioos:station:DISL:BSCA:1,2011-11-05T13:30:00Z,30.3288,-87.8293,11.12,1111122 
DISL,ioos:station:DISL:BSCA:1,2011-11-05T14:00:00Z,30.3288,-87.8293,12.27,1111122 
DISL,ioos:station:DISL:BSCA:1,2011-11-05T14:30:00Z,30.3288,-87.8293,13.93,1111122 
DISL,ioos:station:DISL:BSCA:1,2011-11-05T15:00:00Z,30.3288,-87.8293,15.38,1111122 
DISL,ioos:station:DISL:BSCA:1,2011-11-05T15:30:00Z,30.3288,-87.8293,16.29,1111122 
DISL,ioos:station:DISL:BSCA:1,2011-11-05T16:00:00Z,30.3288,-87.8293,17.0,1111122 
DISL,ioos:station:DISL:BSCA:1,2011-11-05T16:30:00Z,30.3288,-87.8293,17.56,1111122 
DISL,ioos:station:DISL:BSCA:1,2011-11-05T17:00:00Z,30.3288,-87.8293,17.8,1111122 
DISL,ioos:station:DISL:BSCA:1,2011-11-05T17:30:00Z,30.3288,-87.8293,17.8,1111122 
DISL,ioos:station:DISL:BSCA:1,2011-11-05T18:00:00Z,30.3288,-87.8293,17.9,1111122 
DISL,ioos:station:DISL:BSCA:1,2011-11-05T18:30:00Z,30.3288,-87.8293,18.59,1111122 
DISL,ioos:station:DISL:BSCA:1,2011-11-05T19:00:00Z,30.3288,-87.8293,18.45,1111122 
DISL,ioos:station:DISL:BSCA:1,2011-11-05T19:30:00Z,30.3288,-87.8293,18.86,1111122 
DISL,ioos:station:DISL:BSCA:1,2011-11-05T20:00:00Z,30.3288,-87.8293,19.74,1111122 
DISL,ioos:station:DISL:BSCA:1,2011-11-05T20:30:00Z,30.3288,-87.8293,19.95,1111122 
DISL,ioos:station:DISL:BSCA:1,2011-11-05T21:00:00Z,30.3288,-87.8293,18.83,1111122 
DISL,ioos:station:DISL:BSCA:1,2011-11-05T21:30:00Z,30.3288,-87.8293,18.25,1111122 
DISL,ioos:station:DISL:BSCA:1,2011-11-05T22:00:00Z,30.3288,-87.8293,18.29,1111122 
DISL,ioos:station:DISL:BSCA:1,2011-11-05T22:30:00Z,30.3288,-87.8293,18.02,1111122 
DISL,ioos:station:DISL:BSCA:1,2011-11-05T23:00:00Z,30.3288,-87.8293,17.73,1111122 
DISL,ioos:station:DISL:BSCA:1,2011-11-05T23:30:00Z,30.3288,-87.8293,17.19,1111122 
DISL,ioos:station:DISL:BSCA:1,2011-11-06T00:00:00Z,30.3288,-87.8293,16.71,1111122 
DISL,ioos:station:DISL:BSCA:1,2011-11-06T00:30:00Z,30.3288,-87.8293,15.78,1111122 
DISL,ioos:station:DISL:BSCA:1,2011-11-06T01:00:00Z,30.3288,-87.8293,15.21,1111122 
DISL,ioos:station:DISL:BSCA:1,2011-11-06T01:30:00Z,30.3288,-87.8293,15.37,1111122 
DISL,ioos:station:DISL:BSCA:1,2011-11-06T02:00:00Z,30.3288,-87.8293,15.0,1111122 
DISL,ioos:station:DISL:BSCA:1,2011-11-06T02:30:00Z,30.3288,-87.8293,15.95,1111122 
DISL,ioos:station:DISL:BSCA:1,2011-11-06T03:00:00Z,30.3288,-87.8293,14.97,1111122 
DISL,ioos:station:DISL:BSCA:1,2011-11-06T03:30:00Z,30.3288,-87.8293,14.97,1111122 
DISL,ioos:station:DISL:BSCA:1,2011-11-06T04:00:00Z,30.3288,-87.8293,14.19,1111122 
DISL,ioos:station:DISL:BSCA:1,2011-11-06T04:30:00Z,30.3288,-87.8293,14.26,1111122 
DISL,ioos:station:DISL:BSCA:1,2011-11-06T05:00:00Z,30.3288,-87.8293,14.12,1111122 
DISL,ioos:station:DISL:BSCA:1,2011-11-06T05:30:00Z,30.3288,-87.8293,13.92,1111122 
DISL,ioos:station:DISL:BSCA:1,2011-11-06T06:00:00Z,30.3288,-87.8293,13.62,1111122 
DISL,ioos:station:DISL:BSCA:1,2011-11-06T15:30:00Z,30.3288,-87.8293,18.0,1111122 
DISL,ioos:station:DISL:BSCA:1,2011-11-06T16:00:00Z,30.3288,-87.8293,17.39,1111122 
DISL,ioos:station:DISL:BSCA:1,2011-11-06T16:30:00Z,30.3288,-87.8293,17.86,1111122 
DISL,ioos:station:DISL:BSCA:1,2011-11-06T17:00:00Z,30.3288,-87.8293,18.39,1111122 
DISL,ioos:station:DISL:BSCA:1,2011-11-06T17:30:00Z,30.3288,-87.8293,18.76,1111122 
DISL,ioos:station:DISL:BSCA:1,2011-11-06T18:00:00Z,30.3288,-87.8293,18.83,1111122 
DISL,ioos:station:DISL:BSCA:1,2011-11-06T18:30:00Z,30.3288,-87.8293,18.73,1111122 
DISL,ioos:station:DISL:BSCA:1,2011-11-06T19:00:00Z,30.3288,-87.8293,18.59,1111122 
DISL,ioos:station:DISL:BSCA:1,2011-11-06T19:30:00Z,30.3288,-87.8293,18.69,1111122 
DISL,ioos:station:DISL:BSCA:1,2011-11-06T20:00:00Z,30.3288,-87.8293,19.1,1111122 
DISL,ioos:station:DISL:BSCA:1,2011-11-06T20:30:00Z,30.3288,-87.8293,19.23,1111122 
DISL,ioos:station:DISL:BSCA:1,2011-11-06T21:00:00Z,30.3288,-87.8293,19.61,1111122 
DISL,ioos:station:DISL:BSCA:1,2011-11-06T21:30:00Z,30.3288,-87.8293,19.84,1111122 
DISL,ioos:station:DISL:BSCA:1,2011-11-06T22:00:00Z,30.3288,-87.8293,19.88,1111122 
DISL,ioos:station:DISL:BSCA:1,2011-11-06T22:30:00Z,30.3288,-87.8293,19.51,1111122 
DISL,ioos:station:DISL:BSCA:1,2011-11-06T23:00:00Z,30.3288,-87.8293,18.79,1111122 
DISL,ioos:station:DISL:BSCA:1,2011-11-06T23:30:00Z,30.3288,-87.8293,18.16,1111122 
DISL,ioos:station:DISL:BSCA:1,2011-11-24T00:00:00Z,30.3288,-87.8293,17.66,1111122 
DISL,ioos:station:DISL:BSCA:1,2011-11-24T00:30:00Z,30.3288,-87.8293,17.25,1111122 
DISL,ioos:station:DISL:BSCA:1,2011-11-24T01:00:00Z,30.3288,-87.8293,16.71,1111122 
DISL,ioos:station:DISL:BSCA:1,2011-11-24T01:30:00Z,30.3288,-87.8293,16.04,1111122 
DISL,ioos:station:DISL:BSCA:1,2011-11-24T02:00:00Z,30.3288,-87.8293,15.64,1111122 
DISL,ioos:station:DISL:BSCA:1,2011-11-24T02:30:00Z,30.3288,-87.8293,15.21,1111122 
DISL,ioos:station:DISL:BSCA:1,2011-11-24T03:00:00Z,30.3288,-87.8293,14.53,1111122 
DISL,ioos:station:DISL:BSCA:1,2011-11-24T03:30:00Z,30.3288,-87.8293,14.15,1111122 
DISL,ioos:station:DISL:BSCA:1,2011-11-24T04:00:00Z,30.3288,-87.8293,13.81,1111122 
DISL,ioos:station:DISL:BSCA:1,2011-11-24T04:30:00Z,30.3288,-87.8293,13.48,1111122 
DISL,ioos:station:DISL:BSCA:1,2011-11-24T05:00:00Z,30.3288,-87.8293,13.07,1111122 
DISL,ioos:station:DISL:BSCA:1,2011-11-24T05:30:00Z,30.3288,-87.8293,12.78,1111122 
DISL,ioos:station:DISL:BSCA:1,2011-11-24T06:00:00Z,30.3288,-87.8293,12.65,1111122 
DISL,ioos:station:DISL:BSCA:1,2011-11-24T06:30:00Z,30.3288,-87.8293,12.71,1111122 
DISL,ioos:station:DISL:BSCA:1,2011-11-24T07:00:00Z,30.3288,-87.8293,12.58,1111122 
DISL,ioos:station:DISL:BSCA:1,2011-11-24T07:30:00Z,30.3288,-87.8293,12.27,1111122 
DISL,ioos:station:DISL:BSCA:1,2011-11-24T08:00:00Z,30.3288,-87.8293,11.7,1111122 
DISL,ioos:station:DISL:BSCA:1,2011-11-24T08:30:00Z,30.3288,-87.8293,11.63,1111122 